FW4510 Weather Reports


time (UTC)temp
C
wind
direction
speed
KPH
gust
KPH
rain 1hr
cm
rain 24hr
cm
rain mn
cm
humidity
%
barometer
mb
20260506070103 10 234 0.0 0.0 0.00 0.23 0.23 66 1013.0
20260506061551 11 234 0.0 0.0 0.00 0.23 0.23 60 1012.8
20260506044542 13 234 1.6 3.2 0.00 0.23 0.23 53 1012.1
20260506043041 13 234 0.0 0.0 0.00 0.23 0.23 52 1012.0
20260506041555 13 234 0.0 1.6 0.00 0.23 0.23 50 1011.8
20260506040039 14 234 6.4 17.7 0.00 0.23 0.23 47 1011.4
20260506034537 15 234 8.0 16.1 0.00 0.23 0.23 45 1011.2
20260506033036 15 206 9.7 24.1 0.00 0.23 0.23 42 1011.0
20260506031536 15 234 12.9 19.3 0.00 0.23 0.23 41 1010.7
20260506030036 15 233 11.3 19.3 0.00 0.23 0.23 40 1010.4
20260506024539 16 234 16.1 24.1 0.00 0.23 0.23 39 1010.1
20260506023034 16 223 8.0 14.5 0.00 0.23 0.23 37 1010.2
20260506021534 17 223 9.7 22.5 0.00 0.23 0.23 34 1009.9
20260506020032 17 239 11.3 22.5 0.00 0.23 0.23 32 1009.7
20260506014543 17 248 12.9 25.7 0.00 0.23 0.23 32 1009.6
20260506013031 18 260 11.3 20.9 0.00 0.23 0.23 30 1009.5
20260506011533 19 236 12.9 30.6 0.00 0.23 0.23 30 1009.5
20260506010031 19 225 9.7 22.5 0.00 0.23 0.23 29 1009.2
20260506004538 20 184 11.3 24.1 0.00 0.23 0.23 26 1009.0
20260506003030 20 181 9.7 30.6 0.00 0.23 0.23 28 1009.0
20260506001529 20 186 4.8 22.5 0.00 0.23 0.23 27 1008.9
20260506000036 20 187 11.3 33.8 0.00 0.23 0.23 28 1008.7
20260505234528 21 235 6.4 32.2 0.00 0.23 0.23 27 1008.6
20260505233026 21 203 6.4 35.4 0.00 0.23 0.23 29 1008.6
20260505231526 21 200 6.4 30.6 0.00 0.23 0.23 29 1008.5
20260505230032 21 186 9.7 25.7 0.00 0.23 0.23 30 1008.4
20260505224535 21 176 9.7 37.0 0.00 0.23 0.23 31 1008.6
20260505223033 21 145 9.7 24.1 0.00 0.23 0.23 32 1008.7
20260505221522 21 223 16.1 24.1 0.00 0.23 0.23 36 1008.7
20260505220034 21 217 11.3 27.4 0.00 0.23 0.23 35 1008.7
20260505214536 21 220 16.1 40.2 0.00 0.23 0.23 35 1008.8
20260505213028 20 205 17.7 37.0 0.00 0.23 0.23 37 1008.9
20260505211518 21 209 19.3 35.4 0.00 0.23 0.23 35 1009.1
20260505210116 20 222 16.1 29.0 0.00 0.23 0.23 38 1009.1
20260505204524 21 226 17.7 32.2 0.00 0.23 0.23 37 1009.1
20260505203015 21 150 19.3 38.6 0.00 0.23 0.23 38 1009.3
20260505201512 20 188 11.3 29.0 0.00 0.23 0.23 40 1009.2
20260505200010 20 220 17.7 37.0 0.00 0.23 0.23 43 1009.1
20260505194509 21 202 22.5 33.8 0.00 0.23 0.23 42 1009.2
20260505193025 20 206 14.5 27.4 0.00 0.23 0.23 46 1009.1
20260505191506 20 202 16.1 29.0 0.00 0.23 0.23 48 1009.5
20260505190008 19 178 11.3 33.8 0.00 0.23 0.23 49 1009.6
20260505184503 19 215 12.9 29.0 0.00 0.23 0.23 50 1010.0
20260505183004 20 221 22.5 35.4 0.00 0.23 0.23 50 1010.1
20260505181501 20 239 22.5 30.6 0.00 0.23 0.23 49 1010.2
20260505180100 19 230 16.1 40.2 0.00 0.23 0.23 51 1010.1
20260505174559 19 225 20.9 32.2 0.00 0.23 0.23 51 1010.0
20260505173057 18 213 19.3 35.4 0.00 0.23 0.23 54 1009.8
20260505171557 18 186 9.7 32.2 0.00 0.23 0.23 55 1009.7
20260505170158 18 200 12.9 35.4 0.00 0.23 0.23 56 1009.8
20260505164555 18 220 12.9 24.1 0.00 0.23 0.23 55 1009.7
20260505163058 18 123 8.0 24.1 0.00 0.23 0.23 57 1009.8
20260505161549 17 199 6.4 17.7 0.00 0.23 0.23 60 1009.7
20260505153050 15 186 3.2 8.0 0.00 0.23 0.23 69 1009.3
20260505151543 16 190 1.6 8.0 0.00 0.23 0.23 70 1009.3
20260505124538 11 193 6.4 14.5 0.03 0.23 0.23 84 1008.2
20260505123054 11 188 4.8 9.7 0.03 0.23 0.23 85 1007.7
20260505121536 11 195 4.8 8.0 0.03 0.23 0.23 84 1007.7
20260505120046 12 195 0.0 6.4 0.00 0.20 0.20 82 1008.4
20260505114545 12 196 4.8 14.5 0.00 0.20 0.20 81 1008.3
20260505113030 12 142 1.6 11.3 0.00 0.20 0.20 82 1007.8
20260505111528 12 140 1.6 12.9 0.00 0.20 0.20 79 1008.1
20260505101521 12 104 1.6 9.7 0.03 0.20 0.20 83 1008.7
20260505100029 12 103 3.2 12.9 0.08 0.20 0.20 82 1009.1
20260505094515 12 111 4.8 12.9 0.13 0.18 0.18 83 1009.5
20260505093014 12 260 4.8 9.7 0.15 0.18 0.18 84 1009.8
20260505091512 12 260 4.8 12.9 0.15 0.15 0.15 83 1010.0
20260505090009 12 259 1.6 6.4 0.10 0.10 0.10 85 1010.4
20260505084505 13 259 1.6 6.4 0.05 0.05 0.05 85 1010.6
20260505083004 13 259 3.2 4.8 0.03 0.03 0.03 84 1011.0
20260505081605 13 259 6.4 12.9 0.00 0.00 0.00 82 1011.4
20260505080058 14 259 8.0 16.1 0.00 0.00 0.00 78 1011.2
20260505074552 15 261 8.0 16.1 0.00 0.00 0.00 70 1011.0
20260505073056 16 254 8.0 22.5 0.00 0.00 0.00 64 1011.0
20260505071545 16 265 8.0 22.5 0.00 0.00 0.00 62 1011.2